Time,TemperatureF,DewpointF,PressureIn,WindDirection,WindDirectionDegrees,WindSpeedMPH,WindSpeedGustMPH,Humidity,HourlyPrecipIn,Conditions,Clouds,dailyrainin,SoftwareType,DateUTC
2013-08-02 00:02:00,77.1,70.8,29.89,ESE,122,1.0,3.0,81,0.00,,,0.00,LWC2 V0.39 B123,2013-08-02 06:02:00,
2013-08-02 00:07:00,77.2,70.5,29.89,SE,138,2.0,3.0,80,0.00,,,0.00,LWC2 V0.39 B123,2013-08-02 06:07:00,
2013-08-02 00:12:00,77.3,70.3,29.88,SE,138,2.0,4.0,79,0.00,,,0.00,LWC2 V0.39 B123,2013-08-02 06:12:00,
2013-08-02 00:17:00,77.4,70.4,29.87,ESE,116,1.0,5.0,79,0.00,,,0.00,LWC2 V0.39 B123,2013-08-02 06:17:00,
2013-08-02 00:23:00,77.6,70.6,29.87,ESE,113,2.0,3.0,79,0.00,,,0.00,LWC2 V0.39 B123,2013-08-02 06:23:00,
2013-08-02 00:29:00,77.9,70.5,29.86,SE,125,3.0,4.0,78,0.00,,,0.00,LWC2 V0.39 B123,2013-08-02 06:29:00,
2013-08-02 00:34:00,78.0,70.6,29.86,WSW,246,4.0,7.0,78,0.00,,,0.00,LWC2 V0.39 B123,2013-08-02 06:34:00,
2013-08-02 00:39:00,78.0,70.6,29.86,SSE,159,4.0,6.0,78,0.00,,,0.00,LWC2 V0.39 B123,2013-08-02 06:39:00,
2013-08-02 00:44:00,78.0,70.6,29.85,SSE,156,2.0,5.0,78,0.00,,,0.00,LWC2 V0.39 B123,2013-08-02 06:44:00,
2013-08-02 00:49:00,78.1,71.0,29.85,South,176,4.0,7.0,79,0.00,,,0.00,LWC2 V0.39 B123,2013-08-02 06:49:00,
2013-08-02 00:55:00,78.1,71.0,29.85,ESE,122,2.0,6.0,79,0.00,,,0.00,LWC2 V0.39 B123,2013-08-02 06:55:00,
2013-08-02 01:01:00,78.0,71.3,29.85,SE,142,2.0,4.0,80,0.00,,,0.00,LWC2 V0.39 B123,2013-08-02 07:01:00,
2013-08-02 01:06:00,78.0,71.3,29.85,ESE,122,1.0,4.0,80,0.00,,,0.00,LWC2 V0.39 B123,2013-08-02 07:06:00,
2013-08-02 01:11:00,78.0,71.7,29.84,South,184,3.0,3.0,81,0.00,,,0.00,LWC2 V0.39 B123,2013-08-02 07:11:00,
2013-08-02 01:16:00,78.2,71.9,29.84,SE,146,1.0,4.0,81,0.00,,,0.00,LWC2 V0.39 B123,2013-08-02 07:16:00,
2013-08-02 01:21:00,78.5,72.2,29.84,South,191,4.0,5.0,81,0.00,,,0.00,LWC2 V0.39 B123,2013-08-02 07:21:00,
2013-08-02 01:26:00,79.0,72.7,29.84,SSE,159,3.0,8.0,81,0.00,,,0.00,LWC2 V0.39 B123,2013-08-02 07:26:00,
2013-08-02 01:32:00,79.4,73.0,29.84,South,180,4.0,6.0,81,0.00,,,0.00,LWC2 V0.39 B123,2013-08-02 07:32:00,
2013-08-02 01:37:00,79.6,73.2,29.84,SSW,194,6.0,8.0,81,0.00,,,0.00,LWC2 V0.39 B123,2013-08-02 07:37:00,
2013-08-02 01:42:00,79.7,73.0,29.84,South,170,2.0,5.0,80,0.00,,,0.00,LWC2 V0.39 B123,2013-08-02 07:42:00,
2013-08-02 01:47:00,79.7,73.0,29.84,SW,232,4.0,6.0,80,0.00,,,0.00,LWC2 V0.39 B123,2013-08-02 07:47:00,
2013-08-02 01:52:00,79.7,73.3,29.84,ESE,103,5.0,7.0,81,0.00,,,0.00,LWC2 V0.39 B123,2013-08-02 07:52:00,
2013-08-02 01:58:00,79.7,73.3,29.84,WSW,243,3.0,8.0,81,0.00,,,0.00,LWC2 V0.39 B123,2013-08-02 07:58:00,
2013-08-02 02:03:00,79.7,73.3,29.84,SSE,162,3.0,6.0,81,0.00,,,0.00,LWC2 V0.39 B123,2013-08-02 08:03:00,
2013-08-02 02:08:00,79.8,73.4,29.83,SW,228,4.0,7.0,81,0.00,,,0.00,LWC2 V0.39 B123,2013-08-02 08:08:00,
2013-08-02 02:13:00,79.8,73.4,29.83,South,179,4.0,8.0,81,0.00,,,0.00,LWC2 V0.39 B123,2013-08-02 08:13:00,
2013-08-02 02:18:00,79.8,73.4,29.83,SSE,152,2.0,7.0,81,0.00,,,0.00,LWC2 V0.39 B123,2013-08-02 08:18:00,
2013-08-02 02:23:00,79.8,73.1,29.83,SSW,208,3.0,5.0,80,0.00,,,0.00,LWC2 V0.39 B123,2013-08-02 08:23:00,
2013-08-02 02:28:00,79.9,73.5,29.83,South,190,2.0,9.0,81,0.00,,,0.00,LWC2 V0.39 B123,2013-08-02 08:28:00,
2013-08-02 02:33:00,79.9,73.5,29.84,SSW,198,4.0,6.0,81,0.00,,,0.00,LWC2 V0.39 B123,2013-08-02 08:33:00,
2013-08-02 02:38:00,79.9,73.5,29.84,SSW,204,4.0,9.0,81,0.00,,,0.00,LWC2 V0.39 B123,2013-08-02 08:38:00,
2013-08-02 02:43:00,79.9,73.5,29.84,SSE,165,3.0,9.0,81,0.00,,,0.00,LWC2 V0.39 B123,2013-08-02 08:43:00,
2013-08-02 02:48:00,79.8,73.4,29.85,SW,221,4.0,10.0,81,0.00,,,0.00,LWC2 V0.39 B123,2013-08-02 08:48:00,
2013-08-02 02:53:00,79.7,73.3,29.85,SSE,160,4.0,7.0,81,0.00,,,0.00,LWC2 V0.39 B123,2013-08-02 08:53:00,
2013-08-02 02:58:00,79.7,73.3,29.85,SSE,155,1.0,4.0,81,0.00,,,0.00,LWC2 V0.39 B123,2013-08-02 08:58:00,
2013-08-02 03:03:00,79.6,73.2,29.84,SSE,166,2.0,6.0,81,0.00,,,0.00,LWC2 V0.39 B123,2013-08-02 09:03:00,
2013-08-02 03:08:00,79.4,73.4,29.84,South,172,2.0,9.0,82,0.00,,,0.00,LWC2 V0.39 B123,2013-08-02 09:08:00,
2013-08-02 03:13:00,79.4,73.4,29.84,SSE,163,1.0,5.0,82,0.00,,,0.00,LWC2 V0.39 B123,2013-08-02 09:13:00,
2013-08-02 03:18:00,79.3,73.3,29.84,WSW,237,3.0,5.0,82,0.00,,,0.00,LWC2 V0.39 B123,2013-08-02 09:18:00,
2013-08-02 03:23:00,79.2,73.2,29.84,South,173,2.0,4.0,82,0.00,,,0.00,LWC2 V0.39 B123,2013-08-02 09:23:00,
2013-08-02 03:28:00,79.2,73.2,29.84,South,186,2.0,5.0,82,0.00,,,0.00,LWC2 V0.39 B123,2013-08-02 09:28:00,
2013-08-02 03:33:00,79.1,73.1,29.83,SSW,205,2.0,3.0,82,0.00,,,0.00,LWC2 V0.39 B123,2013-08-02 09:33:00,
2013-08-02 03:38:00,79.1,73.1,29.83,East,96,4.0,6.0,82,0.00,,,0.00,LWC2 V0.39 B123,2013-08-02 09:38:00,
2013-08-02 03:43:00,79.0,73.0,29.83,SW,229,7.0,7.0,82,0.00,,,0.00,LWC2 V0.39 B123,2013-08-02 09:43:00,
2013-08-02 03:48:00,78.9,72.9,29.83,ESE,120,5.0,5.0,82,0.00,,,0.00,LWC2 V0.39 B123,2013-08-02 09:48:00,
2013-08-02 03:53:00,78.8,73.2,29.83,SSE,164,3.0,7.0,83,0.00,,,0.00,LWC2 V0.39 B123,2013-08-02 09:53:00,
2013-08-02 03:58:00,78.7,73.1,29.82,SSW,200,1.0,5.0,83,0.00,,,0.00,LWC2 V0.39 B123,2013-08-02 09:58:00,
2013-08-02 04:03:00,78.6,73.0,29.83,ESE,119,1.0,4.0,83,0.00,,,0.00,LWC2 V0.39 B123,2013-08-02 10:03:00,
2013-08-02 04:08:00,78.6,73.0,29.82,SSE,151,3.0,5.0,83,0.00,,,0.00,LWC2 V0.39 B123,2013-08-02 10:08:00,
2013-08-02 04:13:00,78.6,73.0,29.83,South,175,2.0,5.0,83,0.00,,,0.00,LWC2 V0.39 B123,2013-08-02 10:13:00,
2013-08-02 04:15:00,78.6,73.3,29.83,SW,228,2.0,5.0,84,0.00,,,0.00,LWC2 V0.39 B123,2013-08-02 10:15:00,
2013-08-02 04:20:00,78.5,73.2,29.83,SW,220,3.0,7.0,84,0.00,,,0.00,LWC2 V0.39 B123,2013-08-02 10:20:00,
2013-08-02 04:25:00,78.5,73.2,29.83,SSW,193,1.0,3.0,84,0.00,,,0.00,LWC2 V0.39 B123,2013-08-02 10:25:00,
2013-08-02 04:30:00,78.4,73.1,29.84,WSW,239,2.0,4.0,84,0.00,,,0.00,LWC2 V0.39 B123,2013-08-02 10:30:00,
2013-08-02 04:35:00,78.3,73.1,29.83,ESE,112,2.0,7.0,84,0.00,,,0.00,LWC2 V0.39 B123,2013-08-02 10:35:00,
2013-08-02 04:40:00,78.3,73.4,29.83,SE,132,1.0,4.0,85,0.00,,,0.00,LWC2 V0.39 B123,2013-08-02 10:40:00,
2013-08-02 04:45:00,78.2,73.3,29.83,SSE,156,2.0,3.0,85,0.00,,,0.00,LWC2 V0.39 B123,2013-08-02 10:45:00,
2013-08-02 04:50:00,78.1,73.2,29.83,NW,304,3.0,4.0,85,0.00,,,0.00,LWC2 V0.39 B123,2013-08-02 10:50:00,
2013-08-02 04:55:00,78.1,73.2,29.83,SE,125,3.0,4.0,85,0.00,,,0.00,LWC2 V0.39 B123,2013-08-02 10:55:00,
2013-08-02 05:00:00,78.1,73.2,29.83,ESE,111,1.0,4.0,85,0.00,,,0.00,LWC2 V0.39 B123,2013-08-02 11:00:00,
2013-08-02 05:05:00,78.1,73.2,29.83,West,268,2.0,4.0,85,0.00,,,0.00,LWC2 V0.39 B123,2013-08-02 11:05:00,
2013-08-02 05:10:00,78.0,73.5,29.83,SW,225,4.0,5.0,86,0.00,,,0.00,LWC2 V0.39 B123,2013-08-02 11:10:00,
2013-08-02 05:15:00,78.0,73.1,29.83,WSW,250,3.0,3.0,85,0.00,,,0.00,LWC2 V0.39 B123,2013-08-02 11:15:00,
2013-08-02 05:20:00,78.0,73.5,29.83,ESE,118,2.0,4.0,86,0.00,,,0.00,LWC2 V0.39 B123,2013-08-02 11:20:00,
2013-08-02 05:25:00,78.0,73.5,29.83,SSE,148,4.0,6.0,86,0.00,,,0.00,LWC2 V0.39 B123,2013-08-02 11:25:00,
2013-08-02 05:30:00,77.9,73.4,29.83,SE,125,3.0,4.0,86,0.00,,,0.00,LWC2 V0.39 B123,2013-08-02 11:30:00,
2013-08-02 05:35:00,77.9,73.4,29.83,SE,143,0.0,2.0,86,0.00,,,0.00,LWC2 V0.39 B123,2013-08-02 11:35:00,
2013-08-02 05:41:00,77.8,73.3,29.83,SSW,195,3.0,6.0,86,0.00,,,0.00,LWC2 V0.39 B123,2013-08-02 11:41:00,
2013-08-02 05:46:00,77.9,73.4,29.84,SE,134,2.0,7.0,86,0.00,,,0.00,LWC2 V0.39 B123,2013-08-02 11:46:00,
2013-08-02 05:51:00,77.9,73.4,29.83,SSE,149,2.0,6.0,86,0.00,,,0.00,LWC2 V0.39 B123,2013-08-02 11:51:00,
2013-08-02 05:56:00,77.8,73.3,29.83,WSW,245,3.0,4.0,86,0.00,,,0.00,LWC2 V0.39 B123,2013-08-02 11:56:00,
2013-08-02 06:01:00,77.8,73.6,29.83,SSE,150,3.0,4.0,87,0.00,,,0.00,LWC2 V0.39 B123,2013-08-02 12:01:00,
2013-08-02 06:07:00,77.8,73.6,29.82,SSE,162,3.0,7.0,87,0.00,,,0.00,LWC2 V0.39 B123,2013-08-02 12:07:00,
2013-08-02 06:12:00,77.8,73.6,29.83,SSW,193,4.0,4.0,87,0.00,,,0.00,LWC2 V0.39 B123,2013-08-02 12:12:00,
2013-08-02 06:17:00,77.9,73.7,29.83,SSW,194,4.0,5.0,87,0.00,,,0.00,LWC2 V0.39 B123,2013-08-02 12:17:00,
2013-08-02 06:22:00,78.0,73.5,29.83,SW,225,5.0,7.0,86,0.00,,,0.00,LWC2 V0.39 B123,2013-08-02 12:22:00,
2013-08-02 06:27:00,78.0,73.8,29.83,WSW,238,4.0,5.0,87,0.00,,,0.00,LWC2 V0.39 B123,2013-08-02 12:27:00,
2013-08-02 06:32:00,78.1,73.6,29.83,South,188,1.0,4.0,86,0.00,,,0.00,LWC2 V0.39 B123,2013-08-02 12:32:00,
2013-08-02 06:37:00,78.2,73.7,29.83,ESE,118,4.0,5.0,86,0.00,,,0.00,LWC2 V0.39 B123,2013-08-02 12:37:00,
2013-08-02 06:42:00,78.3,73.8,29.83,SSW,198,2.0,6.0,86,0.00,,,0.00,LWC2 V0.39 B123,2013-08-02 12:42:00,
2013-08-02 06:47:00,78.4,73.9,29.82,SW,226,1.0,5.0,86,0.00,,,0.00,LWC2 V0.39 B123,2013-08-02 12:47:00,
2013-08-02 06:52:00,78.4,73.9,29.82,SE,124,4.0,4.0,86,0.00,,,0.00,LWC2 V0.39 B123,2013-08-02 12:52:00,
2013-08-02 06:57:00,78.5,73.9,29.82,SSE,155,6.0,8.0,86,0.00,,,0.00,LWC2 V0.39 B123,2013-08-02 12:57:00,
2013-08-02 07:02:00,78.5,73.9,29.81,WSW,257,3.0,7.0,86,0.00,,,0.00,LWC2 V0.39 B123,2013-08-02 13:02:00,
2013-08-02 07:07:00,78.6,74.0,29.81,SSW,201,5.0,8.0,86,0.00,,,0.00,LWC2 V0.39 B123,2013-08-02 13:07:00,
2013-08-02 07:12:00,78.7,74.1,29.82,ESE,119,1.0,7.0,86,0.00,,,0.00,LWC2 V0.39 B123,2013-08-02 13:12:00,
2013-08-02 07:17:00,78.7,74.1,29.82,SE,139,2.0,6.0,86,0.00,,,0.00,LWC2 V0.39 B123,2013-08-02 13:17:00,
2013-08-02 07:22:00,78.8,74.2,29.82,South,190,2.0,8.0,86,0.00,,,0.00,LWC2 V0.39 B123,2013-08-02 13:22:00,
2013-08-02 07:27:00,78.8,74.2,29.82,SSW,208,4.0,6.0,86,0.00,,,0.00,LWC2 V0.39 B123,2013-08-02 13:27:00,
2013-08-02 07:32:00,78.9,74.3,29.82,WSW,248,4.0,4.0,86,0.00,,,0.00,LWC2 V0.39 B123,2013-08-02 13:32:00,
2013-08-02 07:37:00,79.0,74.4,29.82,SW,215,4.0,5.0,86,0.00,,,0.00,LWC2 V0.39 B123,2013-08-02 13:37:00,
2013-08-02 07:42:00,79.1,74.2,29.81,SE,134,3.0,14.0,85,0.00,,,0.00,LWC2 V0.39 B123,2013-08-02 13:42:00,
2013-08-02 07:47:00,79.2,74.3,29.81,SSW,205,4.0,7.0,85,0.00,,,0.00,LWC2 V0.39 B123,2013-08-02 13:47:00,
2013-08-02 07:53:00,79.3,74.4,29.82,South,172,3.0,5.0,85,0.00,,,0.00,LWC2 V0.39 B123,2013-08-02 13:53:00,
2013-08-02 07:58:00,79.4,74.5,29.82,SSE,167,7.0,10.0,85,0.00,,,0.00,LWC2 V0.39 B123,2013-08-02 13:58:00,
2013-08-02 08:03:00,79.4,74.5,29.82,SSE,160,3.0,5.0,85,0.00,,,0.00,LWC2 V0.39 B123,2013-08-02 14:03:00,
2013-08-02 08:08:00,79.4,74.5,29.83,South,178,2.0,6.0,85,0.00,,,0.00,LWC2 V0.39 B123,2013-08-02 14:08:00,
2013-08-02 08:13:00,79.4,74.5,29.84,SW,224,4.0,4.0,85,0.00,,,0.00,LWC2 V0.39 B123,2013-08-02 14:13:00,
2013-08-02 08:18:00,79.4,74.5,29.84,South,173,4.0,4.0,85,0.00,,,0.00,LWC2 V0.39 B123,2013-08-02 14:18:00,
2013-08-02 08:23:00,79.5,74.6,29.84,SW,215,1.0,4.0,85,0.00,,,0.00,LWC2 V0.39 B123,2013-08-02 14:23:00,
2013-08-02 08:28:00,79.6,74.7,29.83,ESE,119,2.0,3.0,85,0.00,,,0.00,LWC2 V0.39 B123,2013-08-02 14:28:00,
2013-08-02 08:33:00,79.7,74.8,29.84,SSE,152,1.0,4.0,85,0.00,,,0.00,LWC2 V0.39 B123,2013-08-02 14:33:00,
2013-08-02 08:38:00,79.8,74.9,29.84,South,177,1.0,2.0,85,0.00,,,0.00,LWC2 V0.39 B123,2013-08-02 14:38:00,
2013-08-02 08:43:00,79.8,74.9,29.84,ESE,118,1.0,4.0,85,0.00,,,0.00,LWC2 V0.39 B123,2013-08-02 14:43:00,
2013-08-02 08:49:00,80.0,75.1,29.84,SSE,149,2.0,3.0,85,0.00,,,0.00,LWC2 V0.39 B123,2013-08-02 14:49:00,
2013-08-02 08:54:00,80.0,74.7,29.84,South,184,2.0,5.0,84,0.00,,,0.00,LWC2 V0.39 B123,2013-08-02 14:54:00,
2013-08-02 08:59:00,80.2,75.3,29.84,ESE,104,4.0,6.0,85,0.00,,,0.00,LWC2 V0.39 B123,2013-08-02 14:59:00,
2013-08-02 09:04:00,80.4,75.5,29.84,SSE,153,0.0,3.0,85,0.00,,,0.00,LWC2 V0.39 B123,2013-08-02 15:04:00,
2013-08-02 09:09:00,80.6,75.3,29.84,ESE,113,2.0,4.0,84,0.00,,,0.00,LWC2 V0.39 B123,2013-08-02 15:09:00,
2013-08-02 09:14:00,80.7,75.8,29.84,SE,143,1.0,1.0,85,0.00,,,0.00,LWC2 V0.39 B123,2013-08-02 15:14:00,
2013-08-02 09:19:00,80.9,75.6,29.85,ESE,103,2.0,3.0,84,0.00,,,0.00,LWC2 V0.39 B123,2013-08-02 15:19:00,
2013-08-02 09:24:00,81.0,75.7,29.85,SE,131,1.0,2.0,84,0.00,,,0.00,LWC2 V0.39 B123,2013-08-02 15:24:00,
2013-08-02 09:29:00,81.0,75.7,29.85,SE,130,2.0,2.0,84,0.00,,,0.00,LWC2 V0.39 B123,2013-08-02 15:29:00,
2013-08-02 09:34:00,81.1,75.8,29.86,SE,137,1.0,1.0,84,0.00,,,0.00,LWC2 V0.39 B123,2013-08-02 15:34:00,
2013-08-02 09:39:00,81.1,75.8,29.86,ESE,115,2.0,2.0,84,0.00,,,0.00,LWC2 V0.39 B123,2013-08-02 15:39:00,
2013-08-02 09:44:00,81.2,75.9,29.86,ESE,110,0.0,1.0,84,0.00,,,0.00,LWC2 V0.39 B123,2013-08-02 15:44:00,
2013-08-02 09:49:00,81.3,76.3,29.87,East,88,0.0,0.0,85,0.00,,,0.00,LWC2 V0.39 B123,2013-08-02 15:49:00,
2013-08-02 09:54:00,81.3,76.3,29.89,NNE,26,2.0,2.0,85,0.00,,,0.00,LWC2 V0.39 B123,2013-08-02 15:54:00,
2013-08-02 09:59:00,81.2,76.2,29.90,NE,53,4.0,6.0,85,0.00,,,0.00,LWC2 V0.39 B123,2013-08-02 15:59:00,
2013-08-02 10:04:00,80.9,75.9,29.90,ENE,68,4.0,6.0,85,0.00,,,0.00,LWC2 V0.39 B123,2013-08-02 16:04:00,
2013-08-02 10:09:00,81.0,76.0,29.90,ENE,69,1.0,4.0,85,0.00,,,0.00,LWC2 V0.39 B123,2013-08-02 16:09:00,
2013-08-02 10:14:00,81.4,76.4,29.90,ENE,77,2.0,3.0,85,0.00,,,0.00,LWC2 V0.39 B123,2013-08-02 16:14:00,
2013-08-02 10:19:00,81.2,76.2,29.89,ENE,57,6.0,7.0,85,0.00,,,0.00,LWC2 V0.39 B123,2013-08-02 16:19:00,
2013-08-02 10:24:00,81.0,76.0,29.88,ENE,73,3.0,5.0,85,0.00,,,0.00,LWC2 V0.39 B123,2013-08-02 16:24:00,
2013-08-02 10:29:00,81.0,76.4,29.88,East,94,1.0,3.0,86,0.00,,,0.00,LWC2 V0.39 B123,2013-08-02 16:29:00,
2013-08-02 10:34:00,80.9,75.9,29.87,SSE,158,3.0,4.0,85,0.00,,,0.00,LWC2 V0.39 B123,2013-08-02 16:34:00,
2013-08-02 10:39:00,80.6,75.7,29.87,SE,133,3.0,4.0,85,0.00,,,0.00,LWC2 V0.39 B123,2013-08-02 16:39:00,
2013-08-02 10:44:00,80.6,76.0,29.87,East,88,2.0,4.0,86,0.00,,,0.00,LWC2 V0.39 B123,2013-08-02 16:44:00,
2013-08-02 10:49:00,80.7,76.1,29.86,SE,136,2.0,4.0,86,0.00,,,0.00,LWC2 V0.39 B123,2013-08-02 16:49:00,
2013-08-02 10:54:00,80.8,76.2,29.86,ESE,113,2.0,4.0,86,0.00,,,0.00,LWC2 V0.39 B123,2013-08-02 16:54:00,
2013-08-02 10:59:00,80.9,76.7,29.86,ESE,104,5.0,5.0,87,0.00,,,0.00,LWC2 V0.39 B123,2013-08-02 16:59:00,
2013-08-02 11:04:00,80.8,75.9,29.85,SE,127,4.0,9.0,85,0.00,,,0.00,LWC2 V0.39 B123,2013-08-02 17:04:00,
2013-08-02 11:09:00,80.6,76.0,29.85,ESE,106,2.0,4.0,86,0.00,,,0.00,LWC2 V0.39 B123,2013-08-02 17:09:00,
2013-08-02 11:14:00,80.7,76.1,29.86,SE,130,4.0,4.0,86,0.00,,,0.00,LWC2 V0.39 B123,2013-08-02 17:14:00,
2013-08-02 11:19:00,80.8,76.2,29.85,SE,131,3.0,5.0,86,0.00,,,0.00,LWC2 V0.39 B123,2013-08-02 17:19:00,
2013-08-02 11:24:00,80.8,75.9,29.85,ENE,73,2.0,5.0,85,0.00,,,0.00,LWC2 V0.39 B123,2013-08-02 17:24:00,
2013-08-02 11:29:00,81.0,76.4,29.85,ESE,107,4.0,4.0,86,0.00,,,0.00,LWC2 V0.39 B123,2013-08-02 17:29:00,
2013-08-02 11:34:00,81.3,76.7,29.85,SE,131,2.0,5.0,86,0.00,,,0.00,LWC2 V0.39 B123,2013-08-02 17:34:00,
2013-08-02 11:39:00,81.7,76.7,29.84,ESE,103,3.0,6.0,85,0.00,,,0.00,LWC2 V0.39 B123,2013-08-02 17:39:00,
2013-08-02 11:44:00,82.1,76.8,29.84,East,92,4.0,7.0,84,0.00,,,0.00,LWC2 V0.39 B123,2013-08-02 17:44:00,
2013-08-02 11:49:00,82.2,76.9,29.84,SE,128,5.0,8.0,84,0.00,,,0.00,LWC2 V0.39 B123,2013-08-02 17:49:00,
2013-08-02 11:54:00,82.4,77.1,29.83,East,80,1.0,4.0,84,0.00,,,0.00,LWC2 V0.39 B123,2013-08-02 17:54:00,
2013-08-02 11:59:00,82.7,77.4,29.83,ESE,121,3.0,4.0,84,0.00,,,0.00,LWC2 V0.39 B123,2013-08-02 17:59:00,
2013-08-02 12:04:00,82.9,77.6,29.83,South,169,3.0,3.0,84,0.00,,,0.00,LWC2 V0.39 B123,2013-08-02 18:04:00,
2013-08-02 12:09:00,83.6,78.2,29.83,ESE,105,1.0,2.0,84,0.00,,,0.00,LWC2 V0.39 B123,2013-08-02 18:09:00,
2013-08-02 12:14:00,83.7,77.6,29.83,SE,126,5.0,5.0,82,0.00,,,0.00,LWC2 V0.39 B123,2013-08-02 18:14:00,
2013-08-02 12:18:00,83.7,78.0,29.83,SE,145,3.0,5.0,83,0.00,,,0.00,LWC2 V0.39 B123,2013-08-02 18:18:00,
2013-08-02 12:23:00,83.4,77.7,29.82,ESE,120,1.0,4.0,83,0.00,,,0.00,LWC2 V0.39 B123,2013-08-02 18:23:00,
2013-08-02 12:28:00,83.7,78.0,29.82,ESE,103,1.0,4.0,83,0.00,,,0.00,LWC2 V0.39 B123,2013-08-02 18:28:00,
2013-08-02 12:33:00,84.1,78.7,29.81,ESE,121,2.0,2.0,84,0.00,,,0.00,LWC2 V0.39 B123,2013-08-02 18:33:00,
2013-08-02 12:38:00,84.4,78.7,29.81,ESE,105,2.0,3.0,83,0.00,,,0.00,LWC2 V0.39 B123,2013-08-02 18:38:00,
2013-08-02 12:43:00,84.9,78.8,29.80,SE,145,2.0,8.0,82,0.00,,,0.00,LWC2 V0.39 B123,2013-08-02 18:43:00,
2013-08-02 12:48:00,85.4,79.3,29.80,East,94,2.0,5.0,82,0.00,,,0.00,LWC2 V0.39 B123,2013-08-02 18:48:00,
2013-08-02 12:53:00,86.0,79.5,29.80,South,175,2.0,4.0,81,0.00,,,0.00,LWC2 V0.39 B123,2013-08-02 18:53:00,
2013-08-02 12:58:00,86.6,79.7,29.80,ESE,110,1.0,3.0,80,0.00,,,0.00,LWC2 V0.39 B123,2013-08-02 18:58:00,
2013-08-02 13:03:00,87.1,79.8,29.80,SSE,147,2.0,4.0,79,0.00,,,0.00,LWC2 V0.39 B123,2013-08-02 19:03:00,
2013-08-02 13:08:00,87.8,80.4,29.80,SE,139,3.0,3.0,79,0.00,,,0.00,LWC2 V0.39 B123,2013-08-02 19:08:00,
2013-08-02 13:13:00,88.1,79.6,29.80,ESE,114,3.0,5.0,76,0.00,,,0.00,LWC2 V0.39 B123,2013-08-02 19:13:00,
2013-08-02 13:18:00,88.7,81.3,29.79,SSW,193,2.0,4.0,79,0.00,,,0.00,LWC2 V0.39 B123,2013-08-02 19:18:00,
2013-08-02 13:23:00,89.2,80.6,29.79,ESE,121,3.0,7.0,76,0.00,,,0.00,LWC2 V0.39 B123,2013-08-02 19:23:00,
2013-08-02 13:28:00,89.0,80.0,29.78,SSE,149,4.0,5.0,75,0.00,,,0.00,LWC2 V0.39 B123,2013-08-02 19:28:00,
2013-08-02 13:33:00,89.0,80.8,29.78,SE,129,1.0,3.0,77,0.00,,,0.00,LWC2 V0.39 B123,2013-08-02 19:33:00,
2013-08-02 13:38:00,90.0,81.8,29.78,ESE,111,3.0,6.0,77,0.00,,,0.00,LWC2 V0.39 B123,2013-08-02 19:38:00,
2013-08-02 13:43:00,91.3,82.6,29.78,SE,132,6.0,7.0,76,0.00,,,0.00,LWC2 V0.39 B123,2013-08-02 19:43:00,
2013-08-02 13:48:00,91.5,80.7,29.78,ESE,108,4.0,8.0,71,0.00,,,0.00,LWC2 V0.39 B123,2013-08-02 19:48:00,
2013-08-02 13:53:00,91.7,81.4,29.78,South,184,3.0,4.0,72,0.00,,,0.00,LWC2 V0.39 B123,2013-08-02 19:53:00,
2013-08-02 13:58:00,92.9,81.6,29.78,South,181,3.0,6.0,70,0.00,,,0.00,LWC2 V0.39 B123,2013-08-02 19:58:00,
2013-08-02 14:03:00,93.7,81.5,29.78,SSW,193,3.0,7.0,68,0.00,,,0.00,LWC2 V0.39 B123,2013-08-02 20:03:00,
2013-08-02 14:08:00,94.2,80.1,29.78,South,176,1.0,7.0,64,0.00,,,0.00,LWC2 V0.39 B123,2013-08-02 20:08:00,
2013-08-02 14:14:00,94.4,80.3,29.77,SE,133,4.0,6.0,64,0.00,,,0.00,LWC2 V0.39 B123,2013-08-02 20:14:00,
2013-08-02 14:19:00,94.6,80.5,29.77,SSW,195,2.0,5.0,64,0.00,,,0.00,LWC2 V0.39 B123,2013-08-02 20:19:00,
2013-08-02 14:24:00,95.0,79.9,29.77,WSW,238,4.0,8.0,62,0.00,,,0.00,LWC2 V0.39 B123,2013-08-02 20:24:00,
2013-08-02 14:29:00,94.6,80.0,29.77,SW,229,5.0,8.0,63,0.00,,,0.00,LWC2 V0.39 B123,2013-08-02 20:29:00,
2013-08-02 14:34:00,94.5,79.9,29.77,SE,134,4.0,7.0,63,0.00,,,0.00,LWC2 V0.39 B123,2013-08-02 20:34:00,
2013-08-02 14:39:00,94.3,80.2,29.77,South,181,3.0,9.0,64,0.00,,,0.00,LWC2 V0.39 B123,2013-08-02 20:39:00,
2013-08-02 14:44:00,94.6,80.0,29.76,WSW,257,2.0,7.0,63,0.00,,,0.00,LWC2 V0.39 B123,2013-08-02 20:44:00,
2013-08-02 14:49:00,94.8,80.7,29.76,South,186,2.0,6.0,64,0.00,,,0.00,LWC2 V0.39 B123,2013-08-02 20:49:00,
2013-08-02 14:54:00,94.8,80.7,29.76,SW,229,8.0,10.0,64,0.00,,,0.00,LWC2 V0.39 B123,2013-08-02 20:54:00,
2013-08-02 14:59:00,94.5,80.4,29.76,South,191,3.0,9.0,64,0.00,,,0.00,LWC2 V0.39 B123,2013-08-02 20:59:00,
2013-08-02 15:04:00,94.6,80.5,29.76,WSW,256,7.0,13.0,64,0.00,,,0.00,LWC2 V0.39 B123,2013-08-02 21:04:00,
2013-08-02 15:09:00,94.8,81.2,29.76,SW,224,4.0,7.0,65,0.00,,,0.00,LWC2 V0.39 B123,2013-08-02 21:09:00,
2013-08-02 15:14:00,95.0,80.4,29.75,SSE,149,4.0,9.0,63,0.00,,,0.00,LWC2 V0.39 B123,2013-08-02 21:14:00,
2013-08-02 15:19:00,95.3,81.1,29.75,WSW,258,3.0,7.0,64,0.00,,,0.00,LWC2 V0.39 B123,2013-08-02 21:19:00,
2013-08-02 15:24:00,95.0,79.9,29.75,South,186,4.0,10.0,62,0.00,,,0.00,LWC2 V0.39 B123,2013-08-02 21:24:00,
2013-08-02 15:29:00,94.6,79.0,29.75,SSW,205,5.0,7.0,61,0.00,,,0.00,LWC2 V0.39 B123,2013-08-02 21:29:00,
2013-08-02 15:34:00,94.7,79.6,29.75,NNW,340,4.0,8.0,62,0.00,,,0.00,LWC2 V0.39 B123,2013-08-02 21:34:00,
2013-08-02 15:39:00,94.7,79.6,29.75,South,184,5.0,7.0,62,0.00,,,0.00,LWC2 V0.39 B123,2013-08-02 21:39:00,
2013-08-02 15:44:00,94.5,79.4,29.75,SSW,203,5.0,10.0,62,0.00,,,0.00,LWC2 V0.39 B123,2013-08-02 21:44:00,
2013-08-02 15:49:00,94.0,80.4,29.75,South,169,3.0,11.0,65,0.00,,,0.00,LWC2 V0.39 B123,2013-08-02 21:49:00,
2013-08-02 15:54:00,93.6,79.5,29.75,WSW,249,3.0,7.0,64,0.00,,,0.00,LWC2 V0.39 B123,2013-08-02 21:54:00,
2013-08-02 15:59:00,93.8,80.2,29.75,WSW,248,3.0,4.0,65,0.00,,,0.00,LWC2 V0.39 B123,2013-08-02 21:59:00,
2013-08-02 16:04:00,94.0,80.9,29.75,SSE,166,1.0,2.0,66,0.00,,,0.00,LWC2 V0.39 B123,2013-08-02 22:04:00,
2013-08-02 16:10:00,94.0,80.4,29.75,WNW,295,2.0,4.0,65,0.00,,,0.00,LWC2 V0.39 B123,2013-08-02 22:10:00,
2013-08-02 16:15:00,94.1,80.0,29.75,SSW,210,5.0,6.0,64,0.00,,,0.00,LWC2 V0.39 B123,2013-08-02 22:15:00,
2013-08-02 16:20:00,93.8,80.2,29.75,NNW,342,3.0,4.0,65,0.00,,,0.00,LWC2 V0.39 B123,2013-08-02 22:20:00,
2013-08-02 16:25:00,93.5,80.4,29.75,SSW,211,5.0,6.0,66,0.00,,,0.00,LWC2 V0.39 B123,2013-08-02 22:25:00,
2013-08-02 16:30:00,93.4,80.8,29.74,SW,231,5.0,6.0,67,0.00,,,0.00,LWC2 V0.39 B123,2013-08-02 22:30:00,
2013-08-02 16:35:00,94.0,81.3,29.74,SSE,167,2.0,4.0,67,0.00,,,0.00,LWC2 V0.39 B123,2013-08-02 22:35:00,
2013-08-02 16:40:00,94.4,81.2,29.74,SW,234,6.0,7.0,66,0.00,,,0.00,LWC2 V0.39 B123,2013-08-02 22:40:00,
2013-08-02 16:45:00,94.7,81.1,29.74,SSW,207,3.0,5.0,65,0.00,,,0.00,LWC2 V0.39 B123,2013-08-02 22:45:00,
2013-08-02 16:50:00,95.0,81.3,29.74,SSW,193,3.0,5.0,65,0.00,,,0.00,LWC2 V0.39 B123,2013-08-02 22:50:00,
2013-08-02 16:55:00,95.3,81.1,29.74,South,183,3.0,8.0,64,0.00,,,0.00,LWC2 V0.39 B123,2013-08-02 22:55:00,
2013-08-02 17:00:00,94.7,80.6,29.74,ESE,115,2.0,6.0,64,0.00,,,0.00,LWC2 V0.39 B123,2013-08-02 23:00:00,
2013-08-02 17:05:00,94.3,80.2,29.74,South,169,3.0,5.0,64,0.00,,,0.00,LWC2 V0.39 B123,2013-08-02 23:05:00,
2013-08-02 17:10:00,94.4,79.8,29.74,West,265,3.0,7.0,63,0.00,,,0.00,LWC2 V0.39 B123,2013-08-02 23:10:00,
2013-08-02 17:15:00,94.8,80.7,29.74,SSE,149,2.0,3.0,64,0.00,,,0.00,LWC2 V0.39 B123,2013-08-02 23:15:00,
2013-08-02 17:20:00,95.1,80.5,29.74,NNW,338,2.0,6.0,63,0.00,,,0.00,LWC2 V0.39 B123,2013-08-02 23:20:00,
2013-08-02 17:25:00,95.3,79.7,29.74,South,180,0.0,8.0,61,0.00,,,0.00,LWC2 V0.39 B123,2013-08-02 23:25:00,
2013-08-02 17:30:00,95.4,79.3,29.74,South,173,2.0,7.0,60,0.00,,,0.00,LWC2 V0.39 B123,2013-08-02 23:30:00,
2013-08-02 17:35:00,95.3,79.7,29.74,SSE,149,3.0,7.0,61,0.00,,,0.00,LWC2 V0.39 B123,2013-08-02 23:35:00,
2013-08-02 17:40:00,95.2,80.1,29.74,North,349,1.0,4.0,62,0.00,,,0.00,LWC2 V0.39 B123,2013-08-02 23:40:00,
2013-08-02 17:45:00,94.9,79.3,29.74,South,171,3.0,6.0,61,0.00,,,0.00,LWC2 V0.39 B123,2013-08-02 23:45:00,
2013-08-02 17:50:00,94.6,79.0,29.74,SSE,153,2.0,6.0,61,0.00,,,0.00,LWC2 V0.39 B123,2013-08-02 23:50:00,
2013-08-02 17:55:00,94.4,79.3,29.74,SSW,204,1.0,2.0,62,0.00,,,0.00,LWC2 V0.39 B123,2013-08-02 23:55:00,
2013-08-02 18:00:00,93.8,78.8,29.74,SSW,207,3.0,6.0,62,0.00,,,0.00,LWC2 V0.39 B123,2013-08-03 00:00:00,
2013-08-02 18:05:00,93.5,79.0,29.74,South,171,2.0,4.0,63,0.00,,,0.00,LWC2 V0.39 B123,2013-08-03 00:05:00,
2013-08-02 18:10:00,93.1,79.5,29.74,SE,132,0.0,2.0,65,0.00,,,0.00,LWC2 V0.39 B123,2013-08-03 00:10:00,
2013-08-02 18:15:00,92.7,79.6,29.74,WSW,239,4.0,4.0,66,0.00,,,0.00,LWC2 V0.39 B123,2013-08-03 00:15:00,
2013-08-02 18:20:00,92.3,79.7,29.74,SSE,149,3.0,3.0,67,0.00,,,0.00,LWC2 V0.39 B123,2013-08-03 00:20:00,
2013-08-02 18:25:00,92.0,80.3,29.74,SSE,160,2.0,2.0,69,0.00,,,0.00,LWC2 V0.39 B123,2013-08-03 00:25:00,
2013-08-02 18:30:00,91.8,80.1,29.74,SW,229,2.0,4.0,69,0.00,,,0.00,LWC2 V0.39 B123,2013-08-03 00:30:00,
2013-08-02 18:35:00,91.5,80.3,29.74,South,177,4.0,4.0,70,0.00,,,0.00,LWC2 V0.39 B123,2013-08-03 00:35:00,
2013-08-02 18:40:00,91.2,80.0,29.74,SW,229,5.0,5.0,70,0.00,,,0.00,LWC2 V0.39 B123,2013-08-03 00:40:00,
2013-08-02 18:45:00,90.9,79.7,29.74,South,177,3.0,5.0,70,0.00,,,0.00,LWC2 V0.39 B123,2013-08-03 00:45:00,
2013-08-02 18:50:00,90.7,79.5,29.74,SSE,159,4.0,5.0,70,0.00,,,0.00,LWC2 V0.39 B123,2013-08-03 00:50:00,
2013-08-02 18:55:00,90.5,79.3,29.74,South,187,3.0,6.0,70,0.00,,,0.00,LWC2 V0.39 B123,2013-08-03 00:55:00,
2013-08-02 19:00:00,90.3,79.6,29.74,SSE,156,1.0,4.0,71,0.00,,,0.00,LWC2 V0.39 B123,2013-08-03 01:00:00,
2013-08-02 19:05:00,90.0,79.3,29.74,SSE,158,4.0,7.0,71,0.00,,,0.00,LWC2 V0.39 B123,2013-08-03 01:05:00,
2013-08-02 19:10:00,89.9,79.2,29.74,SSE,166,2.0,3.0,71,0.00,,,0.00,LWC2 V0.39 B123,2013-08-03 01:10:00,
2013-08-02 19:15:00,89.7,79.0,29.74,WSW,245,4.0,4.0,71,0.00,,,0.00,LWC2 V0.39 B123,2013-08-03 01:15:00,
2013-08-02 19:20:00,89.4,78.7,29.74,SSW,197,4.0,4.0,71,0.00,,,0.00,LWC2 V0.39 B123,2013-08-03 01:20:00,
2013-08-02 19:25:00,89.3,78.6,29.74,South,175,1.0,5.0,71,0.00,,,0.00,LWC2 V0.39 B123,2013-08-03 01:25:00,
2013-08-02 19:30:00,89.3,78.6,29.74,SSE,147,2.0,6.0,71,0.00,,,0.00,LWC2 V0.39 B123,2013-08-03 01:30:00,
2013-08-02 19:35:00,89.3,78.2,29.74,WNW,285,1.0,5.0,70,0.00,,,0.00,LWC2 V0.39 B123,2013-08-03 01:35:00,
2013-08-02 19:40:00,89.3,78.2,29.75,SE,138,3.0,6.0,70,0.00,,,0.00,LWC2 V0.39 B123,2013-08-03 01:40:00,
2013-08-02 19:45:00,89.3,78.2,29.75,South,186,3.0,6.0,70,0.00,,,0.00,LWC2 V0.39 B123,2013-08-03 01:45:00,
2013-08-02 19:50:00,89.3,78.2,29.74,South,183,1.0,5.0,70,0.00,,,0.00,LWC2 V0.39 B123,2013-08-03 01:50:00,
2013-08-02 19:55:00,89.3,78.2,29.74,SW,215,4.0,7.0,70,0.00,,,0.00,LWC2 V0.39 B123,2013-08-03 01:55:00,
2013-08-02 20:00:00,89.3,77.8,29.75,WSW,248,4.0,6.0,69,0.00,,,0.00,LWC2 V0.39 B123,2013-08-03 02:00:00,
2013-08-02 20:05:00,89.3,77.8,29.75,SSE,157,4.0,6.0,69,0.00,,,0.00,LWC2 V0.39 B123,2013-08-03 02:05:00,
2013-08-02 20:10:00,89.2,77.7,29.75,South,177,5.0,7.0,69,0.00,,,0.00,LWC2 V0.39 B123,2013-08-03 02:10:00,
2013-08-02 20:15:00,89.1,77.6,29.75,WSW,250,3.0,5.0,69,0.00,,,0.00,LWC2 V0.39 B123,2013-08-03 02:15:00,
2013-08-02 20:20:00,89.1,77.1,29.75,South,188,3.0,8.0,68,0.00,,,0.00,LWC2 V0.39 B123,2013-08-03 02:20:00,
2013-08-02 20:25:00,89.2,77.2,29.75,SSE,159,4.0,7.0,68,0.00,,,0.00,LWC2 V0.39 B123,2013-08-03 02:25:00,
2013-08-02 20:30:00,89.2,76.8,29.75,SW,221,2.0,5.0,67,0.00,,,0.00,LWC2 V0.39 B123,2013-08-03 02:30:00,
2013-08-02 20:35:00,89.3,76.4,29.75,South,177,6.0,10.0,66,0.00,,,0.00,LWC2 V0.39 B123,2013-08-03 02:35:00,
2013-08-02 20:40:00,89.4,76.5,29.75,SW,221,3.0,7.0,66,0.00,,,0.00,LWC2 V0.39 B123,2013-08-03 02:40:00,
2013-08-02 20:45:00,89.5,76.1,29.76,South,187,8.0,10.0,65,0.00,,,0.00,LWC2 V0.39 B123,2013-08-03 02:45:00,
2013-08-02 20:50:00,89.5,76.1,29.76,South,184,2.0,10.0,65,0.00,,,0.00,LWC2 V0.39 B123,2013-08-03 02:50:00,
2013-08-02 20:55:00,89.4,75.6,29.75,SSW,205,3.0,9.0,64,0.00,,,0.00,LWC2 V0.39 B123,2013-08-03 02:55:00,
2013-08-02 21:00:00,89.4,75.6,29.76,SSW,210,5.0,8.0,64,0.00,,,0.00,LWC2 V0.39 B123,2013-08-03 03:00:00,
2013-08-02 21:05:00,89.3,75.5,29.76,WNW,287,5.0,7.0,64,0.00,,,0.00,LWC2 V0.39 B123,2013-08-03 03:05:00,
2013-08-02 21:10:00,89.5,75.2,29.76,SSW,197,7.0,10.0,63,0.00,,,0.00,LWC2 V0.39 B123,2013-08-03 03:10:00,
2013-08-02 21:15:00,89.4,75.1,29.76,SSE,159,5.0,8.0,63,0.00,,,0.00,LWC2 V0.39 B123,2013-08-03 03:15:00,
2013-08-02 21:20:00,89.2,75.4,29.76,SW,221,3.0,5.0,64,0.00,,,0.00,LWC2 V0.39 B123,2013-08-03 03:20:00,
2013-08-02 21:25:00,89.0,75.2,29.77,NW,314,3.0,10.0,64,0.00,,,0.00,LWC2 V0.39 B123,2013-08-03 03:25:00,
2013-08-02 21:30:00,88.9,75.6,29.76,SSW,198,7.0,9.0,65,0.00,,,0.00,LWC2 V0.39 B123,2013-08-03 03:30:00,
2013-08-02 21:36:00,88.7,75.4,29.76,WSW,245,2.0,9.0,65,0.00,,,0.00,LWC2 V0.39 B123,2013-08-03 03:36:00,
2013-08-02 21:41:00,88.4,75.6,29.76,SW,221,6.0,12.0,66,0.00,,,0.00,LWC2 V0.39 B123,2013-08-03 03:41:00,
2013-08-02 21:46:00,88.3,75.5,29.76,SSE,162,4.0,12.0,66,0.00,,,0.00,LWC2 V0.39 B123,2013-08-03 03:46:00,
2013-08-02 21:51:00,88.2,75.4,29.76,South,169,8.0,11.0,66,0.00,,,0.00,LWC2 V0.39 B123,2013-08-03 03:51:00,
2013-08-02 21:57:00,88.1,74.8,29.76,SSW,203,3.0,6.0,65,0.00,,,0.00,LWC2 V0.39 B123,2013-08-03 03:57:00,
2013-08-02 22:01:00,87.9,75.1,29.76,South,184,3.0,6.0,66,0.00,,,0.00,LWC2 V0.39 B123,2013-08-03 04:01:00,
2013-08-02 22:02:00,87.9,75.1,29.76,WNW,288,2.0,6.0,66,0.00,,,0.00,LWC2 V0.39 B123,2013-08-03 04:02:00,
2013-08-02 22:04:00,87.9,75.1,29.77,SW,218,6.0,8.0,66,0.00,,,0.00,LWC2 V0.39 B123,2013-08-03 04:04:00,
2013-08-02 22:05:00,87.9,75.1,29.77,West,278,4.0,8.0,66,0.00,,,0.00,LWC2 V0.39 B123,2013-08-03 04:05:00,
2013-08-02 22:08:00,87.9,74.6,29.77,SSW,205,4.0,12.0,65,0.00,,,0.00,LWC2 V0.39 B123,2013-08-03 04:08:00,
2013-08-02 22:13:00,87.8,74.5,29.77,WNW,288,3.0,8.0,65,0.00,,,0.00,LWC2 V0.39 B123,2013-08-03 04:13:00,
2013-08-02 22:18:00,87.9,74.6,29.77,SW,229,2.0,8.0,65,0.00,,,0.00,LWC2 V0.39 B123,2013-08-03 04:18:00,
2013-08-02 22:23:00,87.8,74.1,29.78,South,188,6.0,10.0,64,0.00,,,0.00,LWC2 V0.39 B123,2013-08-03 04:23:00,
2013-08-02 22:28:00,87.8,74.1,29.78,SSW,212,3.0,7.0,64,0.00,,,0.00,LWC2 V0.39 B123,2013-08-03 04:28:00,
2013-08-02 22:33:00,87.8,74.1,29.78,WSW,249,4.0,10.0,64,0.00,,,0.00,LWC2 V0.39 B123,2013-08-03 04:33:00,
2013-08-02 22:38:00,87.8,74.1,29.78,SW,225,9.0,9.0,64,0.00,,,0.00,LWC2 V0.39 B123,2013-08-03 04:38:00,
2013-08-02 22:43:00,87.7,74.0,29.78,SSW,211,6.0,14.0,64,0.00,,,0.00,LWC2 V0.39 B123,2013-08-03 04:43:00,
2013-08-02 22:48:00,87.7,74.0,29.78,SW,226,3.0,6.0,64,0.00,,,0.00,LWC2 V0.39 B123,2013-08-03 04:48:00,
2013-08-02 22:53:00,87.5,73.8,29.78,West,259,3.0,6.0,64,0.00,,,0.00,LWC2 V0.39 B123,2013-08-03 04:53:00,
2013-08-02 22:58:00,87.4,73.7,29.78,SW,219,5.0,7.0,64,0.00,,,0.00,LWC2 V0.39 B123,2013-08-03 04:58:00,
2013-08-02 23:03:00,87.3,74.1,29.78,WSW,238,4.0,6.0,65,0.00,,,0.00,LWC2 V0.39 B123,2013-08-03 05:03:00,
2013-08-02 23:08:00,87.2,74.0,29.79,SSW,202,3.0,5.0,65,0.00,,,0.00,LWC2 V0.39 B123,2013-08-03 05:08:00,
2013-08-02 23:13:00,87.1,73.9,29.79,SW,229,2.0,9.0,65,0.00,,,0.00,LWC2 V0.39 B123,2013-08-03 05:13:00,
2013-08-02 23:18:00,87.0,73.8,29.79,SW,231,6.0,9.0,65,0.00,,,0.00,LWC2 V0.39 B123,2013-08-03 05:18:00,
2013-08-02 23:23:00,86.9,73.7,29.79,SSE,157,2.0,4.0,65,0.00,,,0.00,LWC2 V0.39 B123,2013-08-03 05:23:00,
2013-08-02 23:28:00,86.8,73.6,29.80,SSE,168,4.0,9.0,65,0.00,,,0.00,LWC2 V0.39 B123,2013-08-03 05:28:00,
2013-08-02 23:33:00,86.7,73.9,29.79,SW,224,4.0,4.0,66,0.00,,,0.00,LWC2 V0.39 B123,2013-08-03 05:33:00,
2013-08-02 23:38:00,86.5,73.8,29.80,SW,222,3.0,5.0,66,0.00,,,0.00,LWC2 V0.39 B123,2013-08-03 05:38:00,
2013-08-02 23:43:00,86.4,73.7,29.79,WSW,245,4.0,6.0,66,0.00,,,0.00,LWC2 V0.39 B123,2013-08-03 05:43:00,
2013-08-02 23:48:00,86.3,74.0,29.79,SW,228,6.0,6.0,67,0.00,,,0.00,LWC2 V0.39 B123,2013-08-03 05:48:00,
2013-08-02 23:53:00,86.1,73.8,29.79,SSW,208,3.0,6.0,67,0.00,,,0.00,LWC2 V0.39 B123,2013-08-03 05:53:00,
2013-08-02 23:58:00,86.2,73.5,29.79,SE,137,2.0,8.0,66,0.00,,,0.00,LWC2 V0.39 B123,2013-08-03 05:58:00,